Location: Pl�tzky
(52.0521°N, 11.8020°E)
Time: 01:01:59
(UTC+00:00)

N. Korean satellite - Pass Details

Date: 29 January 2021
Orbit: 451 x 502 km, 97.2° (Epoch: 06 March)

Event Time Altitude Azimuth Distance (km) Brightness Sun altitude
Rises 06:02:00 0° 360° (N) 2,511 10.0 -8.6°
Reaches altitude 10° 06:04:35 10° 339° (NNW) 1,620 8.9 -8.3°
Maximum altitude 06:06:52 17° 298° (WNW) 1,250 8.0 -7.9°
Drops below altitude 10° 06:09:07 10° 257° (WSW) 1,599 8.7 -7.6°
Sets 06:11:39 0° 236° (SW) 2,462 9.8 -7.2°
